This is the latest recevied weather packets stored in our database for station/object WX4LTG. If no packets are shown the sender has not sent any weather packets the latest 10 day(s).
| Time | Temp. | Humidity | Pressure | Rain* | Wind** | Luminosity | Snow |
|---|---|---|---|---|---|---|---|
| 1777151288 | 27.78° C | 21% | 1008.8 hPa | 0 mm | - | 753 W/m² | - |
| 1777150983 | 27.22° C | 22% | 1009 hPa | 0 mm | - | 701 W/m² | - |
| 1777150677 | 27.22° C | 21% | 1008.8 hPa | 0 mm | - | 658 W/m² | - |
| 1777150373 | 27.22° C | 22% | 1009 hPa | 0 mm | - | 665 W/m² | - |
| 1777150070 | 26.67° C | 22% | 1009.1 hPa | 0 mm | - | 812 W/m² | - |
| 1777149766 | 26.67° C | 23% | 1009 hPa | 0 mm | - | 787 W/m² | - |
| 1777149463 | 26.67° C | 23% | 1009.2 hPa | 0 mm | - | 274 W/m² | - |
| 1777149159 | 26.67° C | 23% | 1009.1 hPa | 0 mm | - | 167 W/m² | - |
| 1777148858 | 27.22° C | 23% | 1009.3 hPa | 0 mm | - | 217 W/m² | - |
| 1777148556 | 27.78° C | 23% | 1009.3 hPa | 0 mm | - | 414 W/m² | - |
| 1777148252 | 28.33° C | 22% | 1009.4 hPa | 0 mm | - | 337 W/m² | - |
| 1777147949 | 28.33° C | 23% | 1009.4 hPa | 0 mm | - | 692 W/m² | - |
| 1777147644 | 27.78° C | 23% | 1009.6 hPa | 0 mm | - | 873 W/m² | - |
| 1777147340 | 27.22° C | 24% | 1009.5 hPa | 0 mm | - | 715 W/m² | - |
| 1777147035 | 26.67° C | 24% | 1009.5 hPa | 0 mm | - | 745 W/m² | - |
| 1777146732 | 26.11° C | 25% | 1009.6 hPa | 0 mm | - | 714 W/m² | - |
| 1777146428 | 26.67° C | 26% | 1009.5 hPa | 0 mm | - | 437 W/m² | - |
| 1777146125 | 26.67° C | 23% | 1009.6 hPa | 0 mm | - | 611 W/m² | - |
| 1777145825 | 26.67° C | 24% | 1009.7 hPa | 0 mm | - | 563 W/m² | - |
| 1777145522 | 26.67° C | 23% | 1009.7 hPa | 0 mm | - | 534 W/m² | - |
| 1777145216 | 26.67° C | 23% | 1009.8 hPa | 0 mm | - | 417 W/m² | - |
| 1777144912 | 26.11° C | 23% | 1009.6 hPa | 0 mm | - | 392 W/m² | - |
| 1777144611 | 26.11° C | 23% | 1009.8 hPa | 0 mm | - | 347 W/m² | - |
| 1777144307 | 26.11° C | 23% | 1009.9 hPa | 0 mm | - | 298 W/m² | - |
| 1777144003 | 26.11° C | 23% | 1009.9 hPa | 0 mm | - | 322 W/m² | - |
* Rain latest hour (hover to see other rain measurements)
** Current wind speed in m/s (hover to see current wind gust speed)